Location: Recife
(8.0585°S, 34.8848°W)
Time: 12:24:01
(UTC-03:00)

Injun/Solrad 3 - Pass Details

Date: 22 April 2026
Orbit: 868 x 988 km, 66.8° (Epoch: 12 May)

Event Time Altitude Azimuth Distance (km) Brightness Sun altitude
Rises 16:53:17 0° 166° (SSE) 3,459 10.6 4.2°
Reaches altitude 10° 16:57:33 10° 137° (SE) 2,514 9.7 3.2°
Maximum altitude 16:59:45 12° 114° (ESE) 2,358 9.4 2.7°
Drops below altitude 10° 17:01:58 10° 91° (E) 2,515 9.6 2.2°
Sets 17:06:11 0° 62° (ENE) 3,460 10.4 1.1°
